Seattle, WA
on Monday, November 26, 2012

Monday
Previous Day Next Day
Daily Summary
 ActualAverageRecord
Temperature
Mean Temperature °F 43°F  
Max Temperature 49°F 48°F 61°F (1949)
Min Temperature 35°F 38°F 25°F (1952)
Degree Days
Heating Degree Days 23 22  
Month to date heating degree days 464 497  
Since 1 July heating degree days 957 1094  
Cooling Degree Days 0 0  
Month to date cooling degree days 0 0  
Year to date cooling degree days 177 189  
Moisture
Dew Point 32°F   
Average Humidity 73    
Maximum Humidity 92    
Minimum Humidity 54    
Precipitation
Precipitation 0.00 in 0.22 in 1.34 in (2009)
Month to date precipitation 6.71 5.69  
Year to date precipitation 39.84 31.26  
Snow
Snow 0.00 in in 2.20 in (1964)
Month to date snowfall 0.0  
Since 1 July snowfall 0.0  
Snow Depth 0.00 in   
Wind
Wind Speed 8 mph   
Max Wind Speed 16 mph   
Max Gust Speed 20 mph   
Visibility 10 miles   
Events     

Key: T is trace of precipitation, MM is missing value
Source: NWS Daily Summary
Time(PST)TemperatureDew PointHumidity Pressure Visibility Wind DirectionWind SpeedGust SpeedPrecipitationEvents Conditions
12:53 AM 37.0°F 34.0°F 89% 30.24 in 7.0 miles North 8.1 mph - N/A   Partly Cloudy
1:53 AM 37.0°F 34.0°F 89% 30.22 in 7.0 miles NNE 13.8 mph - N/A   Partly Cloudy
2:53 AM 36.0°F 32.0°F 86% 30.19 in 10.0 miles NNE 13.8 mph - N/A   Clear
3:53 AM 35.1°F 33.1°F 92% 30.18 in 10.0 miles NNE 15.0 mph - N/A   Partly Cloudy
4:53 AM 36.0°F 33.1°F 89% 30.18 in 8.0 miles NNE 12.7 mph - N/A   Scattered Clouds
5:53 AM 36.0°F 32.0°F 86% 30.18 in 10.0 miles NNE 11.5 mph - N/A   Scattered Clouds
6:53 AM 36.0°F 32.0°F 86% 30.17 in 10.0 miles NNE 15.0 mph - N/A   Mostly Cloudy
7:53 AM 37.0°F 30.9°F 79% 30.16 in 10.0 miles NNE 11.5 mph - N/A   Mostly Cloudy
8:53 AM 37.9°F 32.0°F 79% 30.14 in 10.0 miles North 11.5 mph - N/A   Mostly Cloudy
9:53 AM 42.1°F 34.0°F 73% 30.14 in 10.0 miles North 6.9 mph - N/A   Mostly Cloudy
10:53 AM 44.1°F 32.0°F 63% 30.14 in 10.0 miles NNW 5.8 mph - N/A   Mostly Cloudy
11:53 AM 46.9°F 32.0°F 56% 30.12 in 10.0 miles North 5.8 mph - N/A   Mostly Cloudy
12:53 PM 48.0°F 32.0°F 54% 30.10 in 10.0 miles NNW 4.6 mph - N/A   Mostly Cloudy
1:53 PM 48.9°F 32.0°F 52% 30.09 in 10.0 miles North 6.9 mph - N/A   Mostly Cloudy
2:53 PM 48.9°F 32.0°F 52% 30.08 in 10.0 miles North 5.8 mph - N/A   Mostly Cloudy
3:53 PM 44.1°F 30.9°F 60% 30.08 in 10.0 miles North 6.9 mph - N/A   Mostly Cloudy
4:53 PM 43.0°F 33.1°F 68% 30.08 in 10.0 miles NNE 9.2 mph - N/A   Scattered Clouds
5:53 PM 42.1°F 34.0°F 73% 30.08 in 10.0 miles North 8.1 mph - N/A   Scattered Clouds
6:53 PM 42.1°F 33.1°F 70% 30.08 in 10.0 miles NNE 9.2 mph - N/A   Partly Cloudy
7:53 PM 39.0°F 30.9°F 73% 30.07 in 10.0 miles North 6.9 mph - N/A   Clear
8:53 PM 39.0°F 30.9°F 73% 30.08 in 10.0 miles North 3.5 mph - N/A   Clear
9:53 PM 39.0°F 30.9°F 73% 30.09 in 10.0 miles North 6.9 mph - N/A   Partly Cloudy
10:53 PM 39.0°F 30.9°F 73% 30.09 in 10.0 miles Calm Calm - N/A   Mostly Cloudy
11:53 PM 39.9°F 28.9°F 65% 30.09 in 10.0 miles East 3.5 mph - N/A   Mostly Cloudy
Moon Phase
Nov. 26 Nov. 28 Dec. 06 Dec. 13 Dec. 20
Sunrise:07:30 AM (PST) Moon Rise:03:21 PM (PST)
Sunset:04:22 PM (PST) Moon Set:05:41 AM (PST)

Copyright © 2014 The Weather Underground, Inc.